Home > Weather > Ludwigsfelde > Past weeks

Flag for Germany Weather for the Past 2 Weeks in Ludwigsfelde, Brandenburg, Germany

Now
39 °F

Sprinkles. Passing clouds.


Feels Like: 32 °F
Forecast: 39 / 43 °F
Wind: 12 mph from Southwest

Location: Berlin-Schoenefeld

Current Time: Feb 10, 2016 at 9:55:32 PM

Latest Report: Feb 10, 2016 at 9:20 PM


Visibility: N/A

Pressure: 29.36 "Hg

Humidity: 87%

Dew point: 36 °F

Location of LudwigsfeldeLocation

Historic Weather in Ludwigsfelde — Graph

°F

Ludwigsfelde Temperature Yesterday

Maximum temperature yesterday: 48 °F (at 10:20 AM)
Minimum temperature yesterday: 43 °F (at 5:20 PM)
Average temperature yesterday: 46 °F

High & Low Weather Summary for the Past Weeks

 TemperatureHumidityPressure
High54 °F (Jan 27, 11:50 AM)100% (Feb 1, 8:50 AM)30.27 "Hg (Feb 1, 8:50 AM)
Low30 °F (Feb 5, 2:50 AM)47% (Feb 2, 1:20 PM)28.97 "Hg (Feb 9, 9:20 PM)
Average43 °F78%29.80 "Hg
* Reported Jan 26 8:20 PM — Feb 10 8:20 PM, Ludwigsfelde, Weather by CustomWeather, © 2016

Note: Actual official high and low records may vary slightly from our data, if they occured in-between our weather recording intervals... More about our weather records

Advertising

Ludwigsfelde Weather History for the Previous 24 Hours

 ConditionsComfort  
Time TempWeatherWind HumidityBarometerVisibility
8:20 PM
Wed, Feb 10
39 °FPassing clouds.9 mph81%29.36 "HgN/A
7:50 PM39 °FPassing clouds.8 mph87%29.36 "HgN/A
7:20 PM39 °FPartly cloudy.10 mph87%29.36 "HgN/A
6:50 PM37 °FSprinkles. Partly cloudy.9 mph93%29.33 "HgN/A
6:20 PM41 °FPartly cloudy.12 mph81%29.33 "HgN/A
5:50 PM41 °FPartly cloudy.6 mph76%29.33 "HgN/A
5:20 PM41 °FPassing clouds.6 mph76%29.33 "HgN/A
4:50 PM41 °FBroken clouds.7 mph81%29.30 "HgN/A
4:20 PM43 °FSprinkles. Broken clouds.10 mph71%29.30 "HgN/A
3:50 PM43 °FBroken clouds.10 mph66%29.30 "HgN/A
3:20 PM43 °FBroken clouds.10 mph66%29.30 "HgN/A
2:50 PM43 °FPartly sunny.14 mph66%29.30 "HgN/A
2:20 PM45 °FPartly sunny.17 mph61%29.30 "HgN/A
1:50 PM45 °FScattered clouds.15 mph61%29.30 "HgN/A
1:20 PM45 °FScattered clouds.16 mph61%29.30 "HgN/A
12:50 PM45 °FScattered clouds.16 mph61%29.30 "HgN/A
12:20 PM45 °FScattered clouds.14 mph61%29.30 "HgN/A
11:50 AM43 °FPartly sunny.14 mph66%29.30 "HgN/A
11:20 AM43 °FScattered clouds.14 mph66%29.30 "HgN/A
10:50 AM43 °FPartly sunny.14 mph66%29.30 "HgN/A
10:20 AM41 °FPartly sunny.16 mph70%29.30 "HgN/A
9:50 AM41 °FPartly sunny.14 mph70%29.30 "HgN/A
9:20 AM39 °FPartly sunny.14 mph75%29.27 "HgN/A
8:50 AM39 °FPartly sunny.14 mph75%29.27 "HgN/A
8:20 AM37 °FBroken clouds.12 mph81%29.27 "HgN/A
7:50 AM39 °FPartly sunny.13 mph75%29.27 "HgN/A
7:20 AM39 °FPassing clouds.12 mph70%29.24 "HgN/A
6:50 AM39 °FPartly cloudy.12 mph75%29.24 "HgN/A
6:20 AM39 °FPassing clouds.14 mph75%29.21 "HgN/A
5:50 AM39 °FPassing clouds.12 mph75%29.21 "HgN/A
5:20 AM39 °FPassing clouds.14 mph75%29.21 "HgN/A
4:50 AM39 °FPassing clouds.18 mph75%29.18 "HgN/A
4:20 AM39 °FPassing clouds.21 mph75%29.18 "HgN/A
3:50 AM41 °FPassing clouds.20 mph70%29.18 "HgN/A
3:20 AM41 °FPassing clouds.24 mph70%29.15 "HgN/A
2:20 AM41 °FPassing clouds.25 mph70%29.12 "HgN/A
1:20 AM43 °FPassing clouds.29 mph66%29.06 "HgN/A
12:20 AM48 °FPartly cloudy.29 mph71%28.97 "HgN/A
11:50 PM
Tue, Feb 9
48 °FPartly cloudy.23 mph71%28.97 "HgN/A
11:20 PM48 °FClear.16 mph76%28.97 "Hg10 mi
10:20 PM46 °FClear.14 mph87%28.97 "Hg10 mi
9:50 PM46 °FClear.16 mph87%28.97 "Hg10 mi
9:20 PM46 °FLight rain. Passing clouds.17 mph87%28.97 "HgN/A
Weather by CustomWeather, © 2016

See weather overviewHow to use our weather pages